[[{"header":{"parameterUnit":"m.s-1","parameterCategory":1,"la1":30.2991,"la2":30.254,"lo1":-89.0895,"lo2":-89.0444,"dy":0.0017,"dx":0.0017,"nx":28,"ny":28,"refTime":"2024-08-14T21:00:00:Z","depth":0,"parameterNumber":2,"parameterNumberName":"U-component_of_WINDS"},"data":[0,0,0,0,0,0,0,0,0,0,0,0,0,0,0,0,0,0,0,0,0,0,0,0,0,0,0,0,0,0,0,0,0,0,0,0,0,0,0,0,0,0,0,0,0,0,0,0,0,0,0,0,0,0,0,0,0,0,1.2814,1.2815,0,1.2873,1.2873,1.2874,1.2861,1.286,1.2859,1.2858,1.2918,1.2921,1.2923,0,0,0,0,0,0,0,0,0,0,0,0,0,1.2691,1.2694,1.2814,1.2815,1.2816,1.2873,1.2873,1.2874,1.2862,1.286,1.2859,1.2858,1.2917,1.292,1.2923,0,0,0,0,0,0,0,0,0,0,0,0,0,1.2747,1.2694,1.2814,1.2816,1.2817,1.2872,1.2873,1.2874,1.2862,1.286,1.2859,1.2857,1.2916,1.292,1.2924,1.2981,0,0,1.2936,1.2937,0,0,0,0,0,0,0,0,1.2743,1.2751,1.2815,1.2816,1.2817,1.2858,1.2852,1.291,1.2862,1.2845,1.2858,1.2856,1.2899,1.2905,1.2919,1.2983,1.2986,1.2936,1.2939,1.294,1.2941,0,0,0,0,0,0,0,1.274,1.2749,1.2837,1.2816,1.2817,1.2814,1.282,1.2863,1.2881,1.2846,1.2846,1.2853,1.29,1.2915,1.292,1.2987,1.2936,1.2939,1.2942,1.2943,1.31,1.3101,0,0,0,0,0,0,1.2735,1.2745,1.2836,1.2839,1.2776,1.2818,1.2825,1.2847,1.288,1.2884,1.2854,1.2852,1.291,1.2916,1.2923,1.2991,1.294,1.2944,1.2946,1.3098,1.31,1.3102,0,0,0,0,0,0,1.2732,1.2743,1.2833,1.2792,1.2803,1.2822,1.2847,1.2849,1.2864,1.2886,1.2889,1.2867,1.2909,1.2917,1.2966,1.2993,1.2946,1.2949,1.3096,1.3099,1.3101,1.3128,0,0,0,0,0,0,1.2729,1.2742,1.2764,1.2793,1.2806,1.2876,1.2848,1.2851,1.2871,1.2869,1.2899,1.2902,1.2908,1.296,1.297,1.2997,1.2952,1.3093,1.3097,1.31,1.3125,1.3131,1.3137,0,0,0,0,0,1.2725,1.277,1.2766,1.2776,1.2833,1.2878,1.2885,1.2891,1.2873,1.2895,1.2909,1.2901,1.2988,1.2965,1.2976,1.3005,1.3092,1.3096,1.31,1.3122,1.313,1.3136,0,0,0,0,0,0,1.2744,1.2774,1.2769,1.2825,1.2849,1.2875,1.2904,1.2899,1.2928,1.2925,1.2931,1.2937,1.2987,1.3001,1.2975,1.3061,1.3037,1.3044,1.305,1.3058,1.3064,1.306,1.2955,0,0,0,0,0,1.2755,1.2789,1.2812,1.2859,1.2871,1.2885,1.2905,1.2907,1.2932,1.2942,1.2959,1.2984,1.3017,1.3038,1.3069,1.3126,1.3132,1.3151,1.3157,1.3162,1.3168,1.3198,1.3207,1.3115,1.3115,1.3115,0,0,1.2778,1.2798,1.2819,1.2863,1.2882,1.2917,1.2894,1.2931,1.2957,1.2948,1.2995,1.3009,1.3036,1.3089,1.3113,1.3102,1.3194,1.3167,1.3171,1.3174,1.3203,1.3212,1.3219,1.3118,1.3118,1.3117,0,0,1.2836,1.2855,1.2896,1.2915,1.2944,1.2953,1.2962,1.299,1.2998,1.3046,1.3039,1.3069,1.3126,1.3146,1.3163,1.3228,1.3222,1.3238,1.327,1.3299,1.3307,1.3313,1.3336,1.3344,1.3244,1.3244,1.3244,0,1.2861,1.2913,1.2918,1.2955,1.2975,1.2968,1.3009,1.3027,1.3065,1.3079,1.3065,1.3135,1.3154,1.3211,1.3227,1.3241,1.3252,1.3235,1.3305,1.3312,1.3318,1.334,1.3348,1.3246,1.3245,1.3245,1.3245,0,1.2941,1.2977,1.3006,1.3042,1.3065,1.3105,1.3115,1.3138,1.3138,1.3148,1.3196,1.3217,1.3252,1.3266,1.3267,1.3323,1.3315,1.3304,1.328,1.3328,1.3349,1.3357,1.3248,1.3248,1.3247,1.3247,0,0,1.3015,1.3052,1.3063,1.3079,1.311,1.3137,1.3176,1.321,1.3229,1.3255,1.3287,1.3335,1.3324,1.3344,1.3346,1.3372,1.3422,1.3357,1.3358,1.3368,1.3485,1.3493,1.3503,1.3418,1.3419,1.342,1.3482,0,1.3076,1.3144,1.3149,1.3211,1.3243,1.3237,1.327,1.3293,1.3303,1.3332,1.3343,1.3377,1.336,1.3372,1.3397,1.341,1.3445,1.3406,1.3447,1.3449,1.3441,1.3514,1.3523,1.3581,1.349,1.3492,1.3493,0,1.3157,1.3185,1.3249,1.3275,1.3289,1.3319,1.335,1.3378,1.3403,1.3409,1.343,1.3429,1.3468,1.3443,1.3497,1.347,1.3487,1.3496,1.3498,1.3502,1.3474,1.352,1.3599,1.3608,1.3506,1.3505,1.3504,0,1.3203,1.3257,1.3303,1.3316,1.3347,1.3368,1.3382,1.3405,1.3425,1.3453,1.3466,1.3497,1.3515,1.3539,1.3546,1.3527,1.36,1.3575,1.3605,1.3605,1.3621,1.362,1.3704,1.3632,1.3632,1.3632,1.3632,0,1.3271,1.3311,1.3324,1.3352,1.3396,1.3401,1.3444,1.3457,1.3477,1.3507,1.3504,1.3532,1.3539,1.3569,1.3575,1.3618,1.3626,1.3631,1.3632,1.3632,1.3631,1.3643,1.3639,1.3634,1.3634,1.3633,1.3633,0,1.3331,1.3341,1.339,1.3415,1.3422,1.3454,1.3475,1.3501,1.3511,1.3549,1.3558,1.3573,1.3607,1.3616,1.3658,1.3662,1.3713,1.371,1.3704,1.3704,1.3734,1.3731,1.3829,1.3841,1.3761,1.3762,1.3763,0,1.3374,1.3404,1.3432,1.3452,1.3466,1.3498,1.3518,1.3524,1.3546,1.3576,1.3599,1.3632,1.366,1.3715,1.3729,1.3761,1.3759,1.3791,1.3763,1.3762,1.3759,1.3757,1.376,1.3796,1.3797,1.3798,1.3798,0,1.3448,1.3452,1.3481,1.3512,1.3536,1.3561,1.3585,1.3601,1.361,1.3634,1.3669,1.369,1.3732,1.3766,1.3797,1.3811,1.3806,1.3807,1.3815,1.3815,1.381,1.3813,1.3718,1.3804,1.3804,1.3803,1.3803,1.3803,1.3501,1.3527,1.3551,1.3583,1.3602,1.3624,1.365,1.3662,1.3691,1.3726,1.3727,1.3765,1.3788,1.383,1.3846,1.3875,1.3866,1.3878,1.3881,1.3884,1.3887,1.3805,1.3881,1.3881,1.3881,1.3881,1.388,0,1.3575,1.359,1.362,1.3653,1.3678,1.3671,1.3696,1.3718,1.3752,1.3774,1.38,1.384,1.3872,1.3889,1.3921,1.3941,1.394,1.3949,1.3948,1.3951,1.3894,1.3883,1.395,1.395,1.395,1.395,1.395,1.395,1.3617,1.3661,1.3667,1.3719,1.3734,1.3771,1.3786,1.3806,1.3823,1.3868,1.3895,1.3905,1.3925,1.3958,1.3987,1.3991,1.4003,1.4014,1.4016,1.3962,1.3955,1.3949,1.3938,1.4016,1.4016,1.4072,1.4072,1.4072]},{"header":{"parameterUnit":"m.s-1","parameterCategory":1,"la1":30.2991,"la2":30.254,"lo1":-89.0895,"lo2":-89.0444,"dy":0.0017,"dx":0.0017,"nx":28,"ny":28,"refTime":"2024-08-14T21:00:00:Z","depth":0,"parameterNumber":3,"parameterNumberName":"V-component_of_WINDS"},"data":[0,0,0,0,0,0,0,0,0,0,0,0,0,0,0,0,0,0,0,0,0,0,0,0,0,0,0,0,0,0,0,0,0,0,0,0,0,0,0,0,0,0,0,0,0,0,0,0,0,0,0,0,0,0,0,0,0,0,3.1828,3.1829,0,3.1912,3.1913,3.1914,3.1874,3.1872,3.187,3.1868,3.1949,3.1953,3.1957,0,0,0,0,0,0,0,0,0,0,0,0,0,3.1628,3.1632,3.1828,3.1829,3.183,3.1912,3.1913,3.1914,3.1874,3.1872,3.1869,3.1867,3.1948,3.1953,3.1958,0,0,0,0,0,0,0,0,0,0,0,0,0,3.1714,3.1633,3.1828,3.182,3.1821,3.1912,3.1913,3.1914,3.1875,3.1872,3.1868,3.1866,3.1946,3.1952,3.1958,3.206,0,0,3.1977,3.198,0,0,0,0,0,0,0,0,3.1709,3.1721,3.182,3.1821,3.1821,3.1879,3.1872,3.1963,3.1876,3.1854,3.1868,3.1864,3.1928,3.1936,3.1958,3.2064,3.2068,3.1978,3.1982,3.1984,3.1986,0,0,0,0,0,0,0,3.1703,3.1717,3.1861,3.1822,3.1823,3.1811,3.182,3.1889,3.1908,3.1856,3.1853,3.1864,3.1928,3.1952,3.196,3.2069,3.1978,3.1983,3.1987,3.1989,3.2261,3.2264,0,0,0,0,0,0,3.1698,3.1712,3.1858,3.1864,3.1756,3.1817,3.1827,3.1864,3.1907,3.1911,3.1866,3.1862,3.1943,3.1953,3.1963,3.2084,3.1984,3.199,3.1994,3.2257,3.2261,3.2265,0,0,0,0,0,0,3.1694,3.1711,3.1855,3.1787,3.1805,3.1824,3.1866,3.1867,3.1892,3.1915,3.1918,3.1889,3.1941,3.1954,3.2036,3.2086,3.1993,3.1998,3.2253,3.2259,3.2263,3.2329,0,0,0,0,0,0,3.1688,3.171,3.1751,3.1789,3.1809,3.193,3.1869,3.1871,3.1903,3.1898,3.1937,3.194,3.194,3.2027,3.2042,3.2093,3.2003,3.2249,3.2256,3.2262,3.2322,3.2335,3.2347,0,0,0,0,0,3.1681,3.1765,3.1753,3.1771,3.186,3.1933,3.1944,3.1943,3.1907,3.1947,3.1962,3.1939,3.2078,3.2036,3.2053,3.2106,3.2246,3.2254,3.2261,3.2316,3.2333,3.2346,0,0,0,0,0,0,3.1731,3.177,3.1757,3.1856,3.1891,3.1926,3.1976,3.196,3.2006,3.1998,3.1994,3.2003,3.2088,3.2105,3.2058,3.2206,3.2156,3.2168,3.2192,3.2208,3.222,3.2214,3.2008,0,0,0,0,0,3.1754,3.1811,3.1841,3.1926,3.1944,3.1957,3.1989,3.1985,3.2021,3.2035,3.2056,3.209,3.2142,3.2176,3.2224,3.2324,3.2331,3.2369,3.2381,3.2391,3.2401,3.2453,3.247,3.2291,3.2291,3.2291,0,0,3.1801,3.1829,3.1866,3.1936,3.1963,3.2021,3.197,3.2033,3.2076,3.2044,3.2124,3.214,3.2178,3.2269,3.231,3.2286,3.2452,3.2401,3.2409,3.2414,3.2463,3.248,3.2495,3.2296,3.2295,3.2294,0,0,3.1917,3.1945,3.2017,3.2045,3.2087,3.2095,3.2113,3.2149,3.2159,3.2239,3.2216,3.2265,3.2354,3.2382,3.2408,3.2532,3.2512,3.2548,3.2612,3.2663,3.2678,3.269,3.2733,3.2749,3.2557,3.2558,3.2558,0,3.197,3.2058,3.2056,3.2122,3.2153,3.2128,3.22,3.2227,3.2282,3.2303,3.2275,3.2386,3.2409,3.2506,3.2536,3.2558,3.2576,3.2543,3.2676,3.2688,3.27,3.2741,3.2758,3.2562,3.2561,3.2561,3.256,0,3.212,3.2181,3.2235,3.229,3.2326,3.2395,3.2402,3.2439,3.2432,3.2442,3.2522,3.255,3.2603,3.2625,3.2619,3.2721,3.2704,3.2676,3.2626,3.2721,3.276,3.2776,3.2568,3.2566,3.2565,3.2564,0,0,3.2271,3.2324,3.2343,3.2367,3.2411,3.2457,3.2523,3.2577,3.2608,3.2646,3.27,3.2776,3.275,3.2779,3.2774,3.2819,3.2915,3.2786,3.2786,3.2808,3.3028,3.3048,3.3067,3.2901,3.2904,3.2907,3.3024,0,3.2389,3.2508,3.2507,3.2616,3.2671,3.2647,3.2704,3.2736,3.2747,3.2794,3.2805,3.2858,3.282,3.2838,3.2881,3.2894,3.2959,3.2886,3.2951,3.2953,3.2942,3.3087,3.311,3.322,3.3039,3.3042,3.3044,0,3.2544,3.2588,3.2702,3.2737,3.276,3.2812,3.286,3.2905,3.294,3.2944,3.2976,3.2965,3.303,3.2977,3.3066,3.3016,3.3043,3.3053,3.3057,3.3063,3.3004,3.3097,3.3255,3.3271,3.3068,3.3066,3.3064,0,3.2641,3.2729,3.2809,3.283,3.2872,3.2909,3.2928,3.296,3.2991,3.3032,3.3052,3.31,3.3126,3.3163,3.3163,3.3125,3.3252,3.32,3.3257,3.3257,3.3285,3.3283,3.3449,3.3302,3.3302,3.3302,3.3301,0,3.2774,3.2844,3.2853,3.2902,3.298,3.2978,3.3054,3.3069,3.3097,3.3147,3.3128,3.3175,3.3173,3.322,3.3221,3.3294,3.3305,3.331,3.3309,3.3312,3.3311,3.3329,3.3321,3.3306,3.3305,3.3304,3.3303,0,3.2896,3.2905,3.299,3.3023,3.3033,3.3089,3.3116,3.3161,3.3169,3.3233,3.3247,3.326,3.3314,3.3319,3.3381,3.3381,3.3469,3.346,3.3458,3.3456,3.3512,3.3507,3.3695,3.3719,3.3557,3.3559,3.356,0,3.298,3.3034,3.3073,3.3106,3.3127,3.318,3.3212,3.3211,3.3245,3.3288,3.3328,3.338,3.3422,3.3509,3.3523,3.357,3.3562,3.3624,3.3569,3.3569,3.3562,3.3559,3.3564,3.3635,3.3637,3.3639,3.364,0,3.3128,3.313,3.3178,3.3227,3.3266,3.3305,3.3341,3.3368,3.3371,3.3409,3.3465,3.3498,3.3562,3.3613,3.3659,3.3676,3.3658,3.3657,3.3673,3.3676,3.3672,3.3674,3.3487,3.3653,3.3652,3.3651,3.365,3.3649,3.3234,3.328,3.3315,3.3368,3.3395,3.3429,3.3473,3.3487,3.3534,3.3587,3.3582,3.3644,3.3675,3.3734,3.3755,3.3802,3.378,3.3803,3.3809,3.3814,3.382,3.3665,3.381,3.381,3.3809,3.3809,3.3809,0,3.338,3.3401,3.345,3.3502,3.3543,3.3523,3.3561,3.3597,3.3652,3.3683,3.3725,3.3788,3.3838,3.3855,3.3903,3.3937,3.393,3.3949,3.3947,3.3951,3.3837,3.3818,3.3954,3.3954,3.3954,3.3954,3.3954,3.3954,3.3462,3.3539,3.3544,3.3633,3.3653,3.3714,3.3737,3.3767,3.3792,3.3864,3.3906,3.3917,3.3942,3.3991,3.4035,3.4039,3.4057,3.408,3.4081,3.3974,3.3959,3.3945,3.3928,3.4085,3.4085,3.4191,3.4192,3.4193]}]]